Weather History for Cheraw, SC

Change the Weather History Date:

Wednesday, February 5, 2014

  Actual Average (KFLO) Record (KFLO)
Temperature  
Mean Temperature 50 °F 47 °F  
Max Temperature 64 °F 58 °F 79 °F (2008)
Min Temperature 37 °F 36 °F 11 °F (1996)
Degree Days  
Heating Degree Days 14 18  
Month to date heating degree days 93  
Since 1 July heating degree days 1695  
Cooling Degree Days 0 0  
Month to date cooling degree days 0  
Year to date cooling degree days 2  
Moisture  
Dew Point 40 °F    
Average Humidity 82    
Maximum Humidity 100    
Minimum Humidity 42    
Precipitation  
Precipitation 0.16 in 0.10 in 2.07 in (1985)
Month to date precipitation 0.52  
Year to date precipitation 3.75  
Sea Level Pressure  
Sea Level Pressure 29.94 in    
Wind  
Wind Speed - (North)    
Max Wind Speed -    
Max Gust Speed -    
Visibility 6 miles    
Events Fog , Rain    
T = Trace of Precipitation, MM = Missing Value Source: NWS Daily Summary

Daily Weather History Graph

Daily Weather History Graph

Search for Another Location

Airport:

Trip Planner

Search our weather history database for the weather conditions in past years. The results will help you decide how hot, cold, wet, or windy it might be!

Date:

Astronomy

Feb. 05, 2014 Rise Set
Actual Time 7:14 AM EST 5:53 PM EST
Civil Twilight 6:48 AM EST 6:19 PM EST
Nautical Twilight 6:18 AM EST 6:49 PM EST
Astronomical Twilight 5:49 AM EST 7:19 PM EST
Moon 10:46 AM EST (2/5) No Moon Set
Length of Visible Light 11h 30m
Length of Day
10h 38m
Waxing Crescent, 39% of the Moon is Illuminated
Feb 5
Waxing Crescent
Feb 6
First Quarter
Feb 14
Full
Feb 22
Last Quarter
Mar 1
New

Hourly Weather History & Observations

Time (EST) Temp. Dew Point Humidity Pressure Visibility Wind Dir Wind Speed Gust Speed Precip Events Conditions
12:15 AM 37.4 °F 37.4 °F 100% 30.11 in 1.2 mi North - - N/A   Overcast
12:35 AM 37.4 °F 37.4 °F 100% 30.10 in 1.0 mi North - - N/A   Overcast
12:55 AM 37.4 °F 37.4 °F 100% 30.09 in 1.2 mi North - - N/A   Overcast
1:15 AM 37.4 °F 37.4 °F 100% 30.08 in 1.2 mi North - - N/A   Overcast
1:35 AM 37.4 °F 37.4 °F 100% 30.07 in 1.8 mi North - - 0.01 in   Overcast
1:55 AM 37.4 °F 37.4 °F 100% 30.05 in 2.5 mi North - - 0.02 in   Overcast
2:15 AM 37.4 °F 37.4 °F 100% 30.05 in 2.5 mi North - - N/A   Overcast
2:35 AM 37.4 °F 37.4 °F 100% 30.04 in 2.0 mi North - - N/A Rain Light Rain
2:55 AM 37.4 °F 37.4 °F 100% 30.03 in 2.0 mi North - - N/A   Overcast
3:15 AM 37.4 °F 37.4 °F 100% 30.01 in 1.5 mi North - - N/A   Overcast
3:35 AM 37.4 °F 37.4 °F 100% 30.00 in 2.0 mi North - - N/A   Overcast
3:55 AM 37.4 °F 37.4 °F 100% 29.99 in 2.5 mi North - - N/A   Overcast
4:15 AM 37.4 °F 37.4 °F 100% 29.98 in 1.5 mi North - - N/A   Overcast
4:35 AM 37.4 °F 37.4 °F 100% 29.96 in 1.0 mi North - - N/A   Overcast
4:55 AM 37.4 °F 37.4 °F 100% 29.96 in 0.8 mi North - - N/A   Overcast
5:15 AM 37.4 °F 37.4 °F 100% 29.95 in 0.8 mi North - - N/A   Overcast
5:35 AM 37.4 °F 37.4 °F 100% 29.94 in 1.0 mi North - - N/A   Overcast
5:55 AM 37.4 °F 37.4 °F 100% 29.93 in 0.8 mi North - - N/A   Overcast
6:15 AM 37.4 °F 37.4 °F 100% 29.94 in 1.5 mi North - - N/A   Overcast
6:35 AM 37.4 °F 37.4 °F 100% 29.95 in 1.0 mi North - - N/A   Overcast
6:55 AM 37.4 °F 37.4 °F 100% 29.95 in 1.0 mi North - - N/A   Overcast
7:15 AM 37.4 °F 37.4 °F 100% 29.96 in 1.0 mi North - - N/A   Overcast
7:35 AM 37.4 °F 37.4 °F 100% 29.95 in 0.8 mi North - - N/A   Overcast
7:55 AM 37.4 °F 37.4 °F 100% 29.96 in 0.5 mi North - - 0.01 in Fog Fog
8:15 AM 39.2 °F 39.2 °F 100% 29.94 in 1.0 mi North - - 0.02 in Rain Light Rain
8:35 AM 39.2 °F 39.2 °F 100% 29.93 in 1.8 mi North - - 0.02 in Rain Light Rain
8:55 AM 39.2 °F 39.2 °F 100% 29.92 in 5.0 mi North - - 0.03 in   Overcast
9:15 AM 39.2 °F 39.2 °F 100% 29.91 in 5.0 mi North - - N/A Rain Light Rain
9:35 AM 39.2 °F 39.2 °F 100% 29.91 in 8.0 mi North - - 0.01 in Rain Light Rain
9:55 AM 39.2 °F 39.2 °F 100% 29.92 in 1.2 mi North - - 0.10 in Rain Rain
10:15 AM 41.0 °F 41.0 °F 100% 29.88 in 5.0 mi North - - N/A Rain Light Rain
10:35 AM 41.0 °F 41.0 °F 100% 29.90 in 9.0 mi North - - N/A   Overcast
10:55 AM 41.0 °F 41.0 °F 100% 29.91 in 8.0 mi North - - N/A   Overcast
11:15 AM 42.8 °F 42.8 °F 100% 29.90 in 7.0 mi North - - N/A   Overcast
11:35 AM 44.6 °F 44.6 °F 100% 29.90 in 7.0 mi North - - N/A   Overcast
11:55 AM 46.4 °F 46.4 °F 100% 29.88 in 2.0 mi North - - N/A   Overcast
12:15 PM 48.2 °F 48.2 °F 100% 29.88 in 1.8 mi North - - N/A   Overcast
12:35 PM 50.0 °F 50.0 °F 100% 29.87 in 4.0 mi North - - N/A   Overcast
12:55 PM 51.8 °F 51.8 °F 100% 29.85 in 8.0 mi North - - N/A   Overcast
1:15 PM 53.6 °F 53.6 °F 100% 29.84 in 10.0 mi North - - N/A   Overcast
1:35 PM 55.4 °F 53.6 °F 94% 29.83 in 10.0 mi North - - N/A   Overcast
1:55 PM 57.2 °F 53.6 °F 88% 29.83 in 10.0 mi North - - N/A   Mostly Cloudy
2:15 PM 57.2 °F 53.6 °F 88% 29.83 in 10.0 mi North - - N/A   Partly Cloudy
2:35 PM 59.0 °F 51.8 °F 77% 29.83 in 10.0 mi North - - N/A   Clear
2:55 PM 60.8 °F 50.0 °F 68% 29.83 in 10.0 mi North - - N/A   Clear
3:15 PM 62.6 °F 48.2 °F 59% 29.83 in 10.0 mi North - - N/A   Clear
3:35 PM 64.4 °F 46.4 °F 52% 29.83 in 10.0 mi North - - N/A   Clear
3:55 PM 62.6 °F 39.2 °F 42% 29.84 in 10.0 mi North - - N/A   Clear
4:15 PM 62.6 °F 39.2 °F 42% 29.85 in 10.0 mi North - - N/A   Clear
4:35 PM 62.6 °F 39.2 °F 42% 29.86 in 10.0 mi North - - N/A   Clear
4:55 PM 62.6 °F 41.0 °F 45% 29.87 in 10.0 mi North - - N/A   Clear
5:15 PM 60.8 °F 41.0 °F 48% 29.87 in 10.0 mi North - - N/A   Clear
5:35 PM 59.0 °F 41.0 °F 51% 29.88 in 10.0 mi North - - N/A   Clear
5:55 PM 57.2 °F 41.0 °F 55% 29.89 in 10.0 mi North - - N/A   Clear
6:15 PM 57.2 °F 41.0 °F 55% 29.90 in 10.0 mi North - - N/A   Clear
6:35 PM 55.4 °F 41.0 °F 58% 29.91 in 10.0 mi North - - N/A   Clear
6:55 PM 53.6 °F 41.0 °F 62% 29.92 in 10.0 mi North - - N/A   Clear
7:15 PM 53.6 °F 41.0 °F 62% 29.92 in 10.0 mi North - - N/A   Clear
7:35 PM 50.0 °F 42.8 °F 76% 29.93 in 10.0 mi North - - N/A   Clear
7:55 PM 51.8 °F 41.0 °F 67% 29.94 in 10.0 mi North - - N/A   Clear
8:15 PM 50.0 °F 41.0 °F 71% 29.94 in 10.0 mi North - - N/A   Clear
8:35 PM 51.8 °F 41.0 °F 67% 29.96 in 10.0 mi North - - N/A   Clear
8:55 PM 51.8 °F 39.2 °F 62% 29.97 in 10.0 mi North - - N/A   Clear
9:15 PM 51.8 °F 39.2 °F 62% 29.99 in 10.0 mi North - - N/A   Partly Cloudy
9:35 PM 51.8 °F 39.2 °F 62% 29.99 in 10.0 mi North - - N/A   Mostly Cloudy
9:55 PM 50.0 °F 37.4 °F 62% 30.02 in 10.0 mi North - - N/A   Mostly Cloudy
10:15 PM 48.2 °F 30.2 °F 50% 30.03 in 10.0 mi North - - N/A   Mostly Cloudy
10:35 PM 48.2 °F 30.2 °F 50% 30.05 in 10.0 mi North - - N/A   Mostly Cloudy
10:55 PM 46.4 °F 30.2 °F 53% 30.05 in 10.0 mi North - - N/A   Overcast
11:15 PM 46.4 °F 32.0 °F 57% 30.06 in 10.0 mi North - - N/A   Scattered Clouds
11:35 PM 46.4 °F 28.4 °F 50% 30.07 in 10.0 mi North - - N/A   Clear
11:55 PM 44.6 °F 28.4 °F 53% 30.08 in 10.0 mi North - - N/A   Clear